RH
19 18 17 16 15 15 14 14 14 14 16 17 18 17 17 19 19 17 13 8 6 5 6 6 6 6 5 5 5 5 4 4 4 5 5 4 4 4 3 5 6 9 10 11 12 13 15 15 16 17 20 22 33 48 54 58 54 48 49 44 40 43 43 40 36 31 30 29 29 30 31 34 39 49 50 49 50 46 56 64 67 71 63 58 56 57 58 53
22 21 21 20 18 17 16 15 15 14 15 16 17 18 17 17 18 19 18 15 11 7 6 5 5 6 5 5 5 5 4 4 4 4 5 4 4 3 4 4 6 8 9 10 10 11 12 13 15 16 18 24 37 53 57 57 51 45 48 45 41 44 45 43 39 33 31 29 29 30 30 36 43 46 46 50 51 51 64 71 77 76 59 61 63 61 61 54
22 22 22 22 21 20 19 18 17 16 15 16 16 18 18 18 17 18 18 18 16 13 10 7 6 6 5 5 5 5 5 4 3 4 6 6 4 3 4 4 5 7 8 9 9 10 11 12 14 16 20 26 38 52 54 52 48 45 48 47 43 42 43 41 39 36 33 31 30 31 32 36 37 35 39 49 52 57 70 73 72 64 52 60 65 64 63 57
18 19 20 21 21 21 21 20 19 18 17 16 16 17 18 18 18 18 17 18 18 18 15 12 9 8 7 6 5 5 4 4 5 7 12 12 7 4 5 5 5 6 7 9 9 9 9 14 23 28 33 34 37 47 49 47 44 45 46 45 42 43 42 38 37 37 36 34 30 30 32 34 32 29 35 45 48 56 67 64 52 47 51 55 59 64 59 56
14 15 16 18 19 20 20 20 20 19 19 18 17 17 18 18 19 19 18 17 17 18 18 16 14 12 10 8 7 6 4 10 15 15 18 18 11 7 6 5 6 6 7 8 8 9 8 24 49 53 49 43 40 43 44 43 41 42 42 40 41 43 42 38 37 37 37 36 32 32 31 30 31 27 34 42 40 46 57 57 43 41 51 51 52 58 53 53
12 12 13 14 15 17 18 19 19 19 19 19 19 18 18 18 19 20 19 19 17 17 17 16 16 15 13 12 10 8 5 12 19 15 15 16 13 12 9 7 6 6 7 7 7 9 8 27 59 64 54 46 41 40 37 38 39 40 40 39 39 38 38 37 37 35 36 37 35 34 31 29 29 24 29 37 33 40 51 52 45 42 49 51 51 52 48 48
11 11 11 12 12 13 14 16 16 18 18 19 19 19 19 19 20 20 20 20 18 17 16 15 16 15 15 14 12 11 7 7 11 10 9 11 12 13 12 10 7 6 7 7 7 9 8 19 44 55 49 42 38 37 34 33 34 36 37 37 36 36 36 34 35 35 34 36 36 34 32 29 27 24 26 30 29 41 51 49 48 43 44 49 47 47 45 44
9 10 10 10 11 11 12 13 14 15 16 17 18 19 19 19 20 20 21 20 20 19 17 16 15 14 15 15 14 13 9 7 11 13 13 15 15 13 13 11 8 7 7 7 7 8 9 16 32 43 42 37 35 34 31 29 30 31 32 33 32 34 33 32 33 33 32 34 37 36 36 31 27 26 28 28 31 40 44 45 46 40 41 46 43 45 45 44
10 9 9 9 10 10 10 11 11 12 13 14 16 17 18 19 20 20 21 20 20 20 18 17 16 15 14 14 15 11 10 14 16 16 17 19 17 13 10 9 8 7 6 7 7 8 10 15 26 36 35 34 34 33 30 27 26 26 27 28 27 29 28 29 31 31 30 32 35 37 39 35 29 29 28 29 35 40 39 41 44 37 37 43 40 40 42 42
15 12 10 9 9 9 9 10 10 10 11 12 13 14 16 18 19 20 20 21 21 20 19 18 17 17 15 14 13 9 11 16 20 22 24 23 19 15 9 5 7 7 6 7 7 8 10 15 27 33 31 30 31 31 29 27 25 23 22 22 24 27 26 27 30 29 28 29 32 37 40 38 32 32 30 29 36 42 42 42 42 33 30 38 37 35 37 39
20 18 14 11 9 8 8 9 9 9 9 10 11 12 13 14 16 18 19 20 20 20 20 19 18 17 16 16 11 9 12 16 25 31 29 26 18 13 9 4 5 7 6 7 7 7 9 20 31 33 29 27 26 26 25 25 24 22 19 19 22 26 26 26 28 27 27 27 31 36 39 39 34 32 30 29 34 39 43 43 41 33 26 34 37 32 33 36
23 22 20 16 13 10 8 8 8 8 8 9 9 10 11 11 13 15 17 19 19 19 19 19 18 18 17 14 8 9 14 15 25 30 27 28 21 14 10 6 5 6 6 6 8 7 8 22 31 29 27 25 24 23 22 22 22 21 18 18 19 21 22 24 27 27 26 27 31 35 37 39 33 29 30 30 32 36 40 40 39 36 29 34 39 30 31 33
23 23 22 20 18 15 11 9 8 7 7 8 8 9 9 10 11 11 14 16 18 18 19 19 18 18 15 9 5 10 14 14 19 24 24 26 25 23 17 10 7 8 9 6 8 9 9 19 27 24 23 21 21 21 21 22 21 19 17 16 16 17 21 24 24 25 25 26 30 32 35 39 34 29 30 30 32 36 40 42 43 41 36 40 39 28 30 31
25 24 22 21 21 19 15 12 10 8 7 7 7 8 8 8 9 9 11 12 15 16 17 18 17 17 13 6 7 10 12 12 14 18 20 20 21 25 23 16 9 12 18 13 15 21 16 18 23 21 21 19 18 19 19 20 20 18 17 17 17 16 18 21 22 22 22 24 27 29 33 39 36 32 32 32 33 34 39 45 48 46 44 46 38 28 32 29
27 26 24 23 22 21 19 16 13 10 8 7 7 7 7 8 8 8 9 10 12 13 15 17 16 16 11 4 5 8 9 10 9 10 14 14 16 23 26 22 13 11 18 18 23 31 26 22 21 19 19 19 18 18 17 17 17 17 16 16 17 16 16 18 21 21 21 24 26 27 31 36 36 34 34 35 34 32 38 45 47 48 46 45 36 28 32 32
28 27 26 25 24 23 21 19 17 14 11 9 7 7 7 7 8 8 8 8 9 10 12 14 14 14 10 6 7 7 7 8 7 8 10 11 12 19 26 27 22 14 11 14 23 31 30 26 23 19 18 18 18 18 17 17 17 16 16 16 16 17 15 16 19 20 21 24 26 28 30 33 35 35 35 37 35 32 38 43 46 48 47 45 37 27 31 33
28 28 27 26 25 24 24 22 20 18 15 12 9 7 7 6 7 8 7 8 8 9 10 11 12 11 8 7 7 8 8 7 7 8 9 9 9 15 23 27 27 21 12 10 19 28 30 28 26 22 19 18 18 18 18 17 17 17 16 17 16 17 15 15 18 20 20 23 26 28 29 31 33 35 36 39 38 33 37 42 45 48 49 48 40 27 27 28
28 28 28 27 26 25 25 24 22 21 18 16 13 10 8 6 6 7 7 7 7 7 8 9 9 8 8 10 11 14 17 12 8 8 8 9 9 12 21 25 25 25 20 15 16 22 26 26 26 25 21 19 18 18 18 17 17 17 16 16 16 16 16 15 18 20 21 22 25 27 27 29 32 35 37 40 41 36 36 41 44 47 49 50 44 31 23 23
30 29 29 28 27 26 25 25 24 23 21 20 17 13 10 8 7 7 7 7 7 6 7 8 8 7 9 16 20 24 26 21 15 14 14 15 15 16 21 24 22 23 24 20 17 18 21 24 25 25 23 21 19 18 18 18 18 17 17 16 15 15 15 15 17 19 21 22 24 26 26 27 32 34 35 39 42 39 36 38 42 45 48 49 47 37 23 18
32 30 29 29 28 27 26 25 24 23 23 22 21 18 14 11 9 8 8 7 7 7 7 8 7 6 5 11 21 25 26 26 21 20 22 22 20 20 23 25 22 22 23 21 19 17 19 21 21 22 23 21 20 18 18 18 18 17 17 16 15 15 15 14 16 18 20 21 23 26 26 27 32 34 34 37 41 41 37 37 40 42 44 46 48 44 30 17
35 33 31 30 29 28 27 27 26 24 23 23 23 22 18 15 13 11 10 8 8 7 7 7 6 6 4 6 16 22 21 24 23 21 23 25 23 20 22 24 23 23 23 21 20 19 19 20 18 18 19 20 19 18 18 18 18 18 17 17 16 15 15 14 15 18 19 20 22 25 26 27 31 33 34 37 39 41 39 37 39 41 41 43 45 45 38 25
36 35 34 32 30 30 29 27 27 26 25 24 24 24 22 19 16 14 13 10 9 8 7 7 7 6 5 4 10 18 20 23 25 23 22 25 25 21 19 21 22 24 23 21 20 20 19 18 16 16 17 17 17 16 17 18 17 17 17 17 17 16 15 14 15 18 19 19 21 24 26 27 29 32 34 36 38 39 40 39 39 41 41 42 43 44 44 38
37 36 36 35 33 32 31 29 29 28 27 26 25 25 23 21 19 17 15 13 11 10 9 8 7 6 6 4 7 15 19 19 22 24 24 24 25 22 18 19 21 21 22 21 21 20 18 17 15 16 16 16 15 14 16 17 17 17 17 17 17 16 15 15 14 16 18 19 20 23 25 26 30 33 34 35 39 39 39 40 40 41 42 42 43 43 45 45
38 36 36 36 35 35 33 32 31 30 29 28 26 25 23 22 21 19 16 16 13 11 10 10 9 7 7 5 6 10 13 14 17 21 24 24 24 22 18 17 19 19 20 20 21 20 18 16 15 15 15 14 14 13 14 16 17 18 18 17 17 15 15 16 14 14 16 18 20 21 25 29 32 33 34 36 39 40 39 40 40 41 43 43 44 45 46 47
38 37 36 37 37 37 36 35 33 33 31 29 27 25 24 22 21 19 17 17 16 12 11 11 10 8 7 6 6 6 9 12 12 14 21 23 22 21 18 17 18 18 18 19 19 20 18 17 16 14 13 13 12 12 13 15 16 17 18 17 16 16 15 15 14 13 16 19 19 20 26 33 33 30 33 34 36 39 39 40 40 41 42 43 45 45 46 46
38 38 36 37 37 37 39 38 35 35 32 30 28 25 25 23 20 19 18 20 18 13 12 12 11 9 8 7 5 5 8 8 6 9 18 22 20 20 19 17 17 17 17 18 17 18 18 17 15 13 12 12 11 11 12 14 15 15 17 17 16 16 15 15 14 13 16 19 19 19 24 31 33 31 30 31 34 38 38 39 40 40 41 42 44 45 45 46
35 37 36 37 38 37 40 40 38 36 34 31 29 27 26 23 20 17 20 28 24 14 13 12 12 11 9 8 5 6 8 6 5 7 12 18 20 20 18 16 15 15 17 18 16 16 17 16 15 14 12 11 10 10 10 12 15 15 15 15 15 15 15 15 14 13 15 18 19 20 20 24 30 31 28 28 32 35 36 38 39 38 40 40 42 44 44 45
33 34 34 35 38 38 38 42 42 39 37 34 31 30 27 23 22 17 25 38 28 14 14 13 11 11 10 9 7 5 7 7 8 6 6 13 18 18 17 14 14 15 16 17 16 14 15 15 15 14 12 11 10 9 9 10 13 15 15 14 13 14 14 14 14 14 13 15 19 21 20 23 27 26 26 29 31 32 33 36 38 39 39 40 41 42 43 44
29 31 31 31 36 39 37 40 44 43 40 36 33 32 27 23 20 18 31 42 25 13 15 13 11 12 10 11 9 7 7 8 10 9 7 10 14 15 14 12 13 15 15 16 17 15 14 13 14 13 12 11 10 9 9 9 11 13 14 14 13 13 13 13 13 13 13 15 18 18 20 25 28 24 25 29 31 33 33 34 37 39 39 39 40 41 43 44
24 28 29 28 31 36 38 41 45 44 41 39 35 31 25 22 19 24 38 38 20 14 17 14 13 13 11 11 10 9 8 8 11 12 12 12 12 12 12 11 12 14 15 15 16 15 14 12 12 12 11 11 10 9 8 8 9 11 13 13 13 13 12 13 13 11 13 17 16 16 17 22 28 26 24 26 28 30 33 36 38 39 39 38 39 41 42 43
18 23 27 28 28 30 37 43 44 43 42 41 35 29 23 19 20 32 39 29 17 17 16 15 14 13 12 11 10 11 10 9 10 11 12 13 12 12 12 12 12 13 15 15 15 15 14 13 12 11 11 10 9 8 8 8 8 9 12 12 12 12 12 12 12 12 18 19 14 13 15 17 25 27 24 25 26 27 31 35 38 38 38 38 39 41 42 43
12 17 22 28 29 26 34 45 44 43 44 39 35 30 22 19 23 30 31 22 18 18 15 15 15 14 14 12 10 11 11 10 9 10 12 13 12 12 11 11 13 14 14 14 15 15 14 14 13 12 11 10 10 9 8 8 8 8 10 11 12 14 15 17 17 17 20 19 12 12 13 14 17 20 22 24 25 25 27 29 32 35 35 37 39 41 42 44
6 9 14 23 28 27 32 43 46 46 44 38 35 28 21 26 29 25 24 21 17 14 14 15 16 16 16 13 11 11 11 11 10 10 12 13 12 11 10 11 13 14 14 14 15 14 15 15 14 13 12 10 10 9 8 8 8 8 9 10 13 16 20 23 21 19 19 17 13 12 13 14 13 14 17 20 19 20 21 23 27 30 31 34 36 38 42 46
4 5 7 14 22 26 31 40 45 47 43 36 31 23 22 32 33 25 23 23 19 15 15 15 15 16 16 15 14 12 12 13 12 11 12 13 13 11 10 11 13 14 14 14 14 14 16 17 15 13 12 11 11 10 9 8 7 8 8 9 11 14 18 21 20 19 18 16 14 13 13 14 13 13 14 14 15 16 18 22 25 27 28 30 32 33 38 44
4 5 5 6 14 23 30 36 43 46 42 36 28 20 24 31 28 25 24 22 22 20 16 16 16 16 16 15 16 15 14 15 14 12 12 14 14 12 12 12 13 15 14 14 14 14 15 16 15 13 12 11 11 10 9 8 8 8 8 8 9 10 13 15 16 14 13 15 16 15 14 14 12 13 13 13 15 17 20 23 26 27 27 27 30 31 34 37
4 4 5 7 13 21 25 30 40 44 39 34 26 18 22 28 25 25 25 22 21 20 17 18 17 16 15 14 15 16 16 15 15 13 12 14 16 15 15 15 15 15 14 14 14 14 14 15 14 13 13 11 11 11 10 9 8 8 7 8 8 9 11 13 14 12 13 19 19 14 13 13 11 13 13 13 15 17 20 22 23 26 26 26 29 30 31 33
5 4 4 12 23 28 28 30 37 41 38 33 27 22 21 24 25 25 24 22 20 19 19 20 18 15 15 14 13 15 16 16 16 14 13 14 17 17 17 17 17 16 15 14 14 13 13 13 13 13 13 12 11 11 12 11 9 8 7 7 7 8 9 11 14 15 18 22 19 13 12 13 13 14 13 12 14 16 17 19 21 23 25 26 27 28 29 30
6 4 7 22 44 54 54 51 43 40 45 39 28 28 27 24 26 26 24 23 21 20 21 22 20 15 14 15 13 13 14 16 16 14 13 14 15 17 17 17 17 17 16 15 14 14 12 11 12 12 12 12 11 11 12 12 10 9 7 7 7 8 9 10 14 17 21 22 18 14 12 13 13 14 14 13 14 16 17 19 21 23 24 25 26 26 27 27
8 5 10 27 53 71 76 73 63 56 66 64 46 39 35 30 30 29 27 26 24 23 23 22 22 18 15 16 14 13 13 14 16 15 14 14 14 15 16 17 17 17 16 16 14 14 12 12 12 11 12 12 11 10 11 12 11 9 8 7 6 7 8 10 12 14 17 21 21 18 15 14 13 12 14 14 14 15 16 18 20 21 22 24 25 25 25 26
11 7 14 27 50 75 81 78 78 78 85 87 76 66 57 50 46 40 35 32 28 27 27 25 24 20 18 18 16 15 14 13 14 14 14 14 13 14 14 15 17 16 15 15 14 13 12 12 12 11 11 12 11 11 11 11 11 9 8 8 7 7 7 9 11 10 12 19 24 23 20 15 11 12 13 13 13 13 14 16 17 18 19 20 23 23 23 24
13 11 19 30 47 74 86 83 85 88 89 86 82 79 71 62 58 52 46 41 35 31 32 32 31 27 25 22 18 16 16 13 13 13 14 14 13 13 14 14 16 16 15 14 13 13 12 12 13 11 11 11 11 11 11 11 11 9 8 8 7 7 7 8 12 11 8 12 17 20 21 16 11 11 11 11 13 14 14 14 16 17 18 18 20 22 22 22
16 12 17 31 50 71 82 86 88 88 85 80 75 73 67 59 55 51 48 47 42 37 36 36 36 33 31 27 22 19 17 15 13 12 12 13 13 12 13 13 15 15 14 14 13 13 12 11 12 12 11 12 12 12 12 12 11 10 9 8 7 8 7 8 13 12 8 9 10 13 17 15 11 11 11 11 12 13 13 14 14 16 17 18 20 21 21 21
19 15 10 22 54 79 82 81 82 80 76 72 65 61 58 55 52 48 44 43 42 39 38 37 36 33 32 30 27 23 20 17 15 13 13 13 12 12 12 12 13 15 15 14 13 13 12 11 11 12 11 11 11 11 11 12 12 10 10 9 8 8 7 8 10 9 8 9 9 13 16 14 10 10 11 12 12 12 13 13 13 15 16 18 19 19 21 22
23 19 11 12 37 66 75 74 76 75 69 62 54 48 48 48 46 44 41 42 45 47 45 42 40 40 38 36 32 27 23 20 16 13 12 14 13 12 12 12 10 12 14 14 13 12 12 13 12 14 15 14 14 14 12 11 11 10 10 9 9 8 8 7 7 6 9 9 9 14 17 13 10 11 10 11 12 12 13 13 14 15 14 16 17 17 19 20
38 26 18 18 28 44 59 65 68 67 58 51 47 46 50 52 50 52 55 59 61 60 57 50 46 52 53 47 40 31 26 28 29 22 15 13 14 12 12 15 14 12 12 13 14 13 12 13 13 15 20 20 18 18 15 11 10 11 11 10 9 9 8 8 6 7 11 10 7 11 13 11 10 11 10 10 12 12 13 14 14 15 14 14 16 17 18 17
60 40 25 32 39 42 55 62 60 58 55 57 60 59 57 55 53 55 60 65 65 62 63 57 52 57 57 50 43 35 32 38 39 33 25 20 19 17 12 15 18 15 13 11 12 13 13 13 13 13 15 16 15 14 14 12 11 11 11 11 10 8 8 8 6 6 9 10 10 10 10 10 11 12 11 10 10 11 12 13 14 15 16 15 14 16 17 17
75 57 47 60 60 51 61 68 65 69 73 76 79 74 66 59 54 50 46 52 58 57 57 56 54 58 57 51 48 42 43 48 41 37 40 31 21 18 13 12 15 13 14 15 12 12 14 13 14 13 12 13 13 12 13 13 12 12 11 12 11 10 9 8 7 6 6 9 12 10 8 10 10 11 12 11 10 11 11 12 13 15 17 16 14 14 15 17
81 70 69 87 85 66 65 65 62 68 75 79 82 79 75 71 68 62 50 47 53 53 52 52 52 59 62 59 60 56 53 56 47 39 43 33 21 18 12 11 14 11 15 24 18 11 13 15 14 14 13 12 12 12 13 13 13 13 12 12 12 11 10 9 8 8 6 7 9 7 7 9 9 9 11 12 13 13 11 11 12 14 17 17 17 17 17 18
81 78 73 86 90 78 73 72 68 68 69 75 80 78 77 76 73 69 61 53 50 50 57 58 53 58 62 58 61 65 65 72 69 52 46 44 36 30 21 15 14 12 19 33 31 19 17 17 15 15 14 13 13 13 13 14 14 13 12 12 12 12 11 10 9 8 7 7 6 5 6 6 7 9 10 11 12 12 13 13 11 13 17 17 18 19 19 19
82 84 81 88 89 79 78 81 78 76 71 71 77 76 73 71 65 61 60 58 55 53 60 67 64 63 64 57 57 61 64 81 91 74 62 63 53 42 39 33 25 18 21 33 37 30 25 21 16 16 15 14 14 13 13 13 14 14 12 11 11 11 11 10 10 9 9 8 7 7 6 5 5 7 9 10 11 12 14 15 13 14 16 15 18 21 20 20
83 84 87 93 88 79 85 85 76 76 73 68 74 76 69 67 67 66 64 62 63 61 62 70 75 70 64 59 59 59 55 65 82 78 71 74 65 56 58 55 46 36 27 30 36 35 33 27 19 17 20 18 16 15 14 13 13 14 14 12 12 11 11 10 10 9 8 8 8 7 7 7 6 6 7 8 10 11 12 14 15 15 15 14 18 22 21 19
85 85 90 97 89 81 88 87 73 68 68 68 76 80 73 69 69 71 72 68 66 68 66 71 80 78 68 59 55 56 54 58 70 73 70 70 68 63 63 61 61 55 43 40 43 40 37 33 23 18 22 22 19 17 15 14 15 14 14 14 13 11 11 10 9 9 9 8 9 8 7 7 6 6 7 7 8 9 9 11 14 16 15 15 17 19 20 22
Wind_Speed
21 21 21 21 21 20 20 19 19 19 18 18 18 18 17 17 17 16 15 15 15 15 16 17 17 17 17 17 17 16 15 15 16 18 12 8 18 22 23 24 23 24 23 22 21 20 20 18 16 14 12 9 7 3 3 8 8 6 4 5 5 2 4 9 7 5 5 8 6 8 11 9 13 13 9 8 7 8 12 12 9 9 11 14 16 17 18 18
21 21 21 21 21 21 20 20 19 19 19 19 18 18 18 17 17 16 16 15 15 15 15 16 16 17 17 17 17 16 15 15 16 15 10 9 17 19 20 23 23 24 23 21 21 20 20 17 15 14 11 8 5 6 11 13 12 10 6 5 4 5 10 8 4 2 3 3 4 12 11 10 15 10 7 8 7 8 13 13 12 11 13 18 18 19 20 18
22 22 22 22 22 21 21 20 20 19 19 19 19 18 18 17 17 17 16 16 15 15 15 15 16 17 18 17 17 17 15 14 14 12 10 11 14 15 17 20 21 22 22 20 19 19 18 14 13 12 11 9 6 10 17 17 15 12 7 4 3 6 8 5 5 3 1 4 7 14 9 11 14 8 10 14 10 10 15 15 16 13 14 20 20 20 21 20
22 22 22 22 22 22 22 21 20 20 20 19 19 19 18 18 18 17 17 16 16 16 15 15 15 16 17 17 16 17 16 13 13 10 8 7 9 13 15 17 19 20 20 19 19 19 17 13 11 9 8 9 8 12 21 19 15 13 8 3 2 6 6 3 5 4 2 3 8 11 12 14 11 8 13 17 13 15 18 16 12 9 12 19 21 22 22 21
21 21 21 22 22 22 22 22 21 21 20 20 20 19 19 19 18 18 18 17 17 17 16 15 14 15 16 17 15 15 15 11 10 6 2 2 5 10 13 15 18 19 20 21 21 21 19 15 11 11 9 10 10 14 22 21 16 16 13 6 0 3 5 4 3 4 5 6 7 8 12 11 6 8 15 17 12 14 22 19 10 5 10 16 20 23 22 22
20 20 21 21 22 22 22 22 22 21 21 21 20 20 19 19 18 19 18 18 18 18 17 16 15 15 15 17 15 14 13 9 9 10 6 4 3 5 8 12 17 19 21 23 23 23 22 18 17 19 17 14 16 17 21 21 19 20 20 15 4 0 3 7 6 3 6 8 8 8 10 8 6 8 14 17 13 15 25 21 11 5 8 14 18 22 21 22
19 20 20 20 21 21 21 21 22 21 21 21 21 21 20 20 19 19 19 19 19 19 18 17 16 16 16 18 16 15 14 9 9 14 13 9 5 4 5 9 15 19 22 24 24 23 24 22 23 24 23 20 20 22 22 21 22 20 21 20 12 7 4 4 6 7 10 10 10 9 9 10 8 8 11 13 13 22 26 18 12 7 8 14 18 20 19 21
18 19 19 20 20 21 21 21 21 21 21 21 21 21 21 20 20 20 20 20 20 20 19 18 18 17 17 18 18 17 14 7 7 13 13 10 9 7 8 9 14 20 23 23 24 23 23 24 24 23 24 23 20 21 19 18 22 22 23 21 15 14 7 3 3 8 14 14 12 11 9 10 11 10 10 7 12 25 20 15 14 9 9 15 17 19 19 20
19 19 19 20 20 20 20 21 21 21 21 21 21 21 21 21 21 21 21 20 21 21 20 20 19 19 19 18 20 18 10 7 9 9 9 10 10 8 9 11 14 20 23 23 23 23 24 25 25 23 22 22 21 21 17 16 22 24 28 26 22 18 9 7 7 8 15 17 13 12 10 11 12 11 11 7 11 21 18 15 13 9 9 15 17 19 20 20
20 20 19 19 20 20 20 20 21 21 21 20 20 20 21 21 21 21 21 21 22 22 21 21 20 21 21 19 21 16 6 8 9 7 9 13 11 8 8 11 14 19 23 24 24 24 26 24 22 22 21 20 21 23 21 21 23 20 19 25 31 23 8 5 9 11 16 19 15 13 12 11 11 10 13 15 16 20 17 14 12 9 8 15 16 18 20 20
20 20 20 20 20 20 20 20 20 20 20 20 20 20 20 21 21 21 21 22 22 22 22 22 22 23 22 22 22 14 6 7 6 6 9 13 11 4 5 10 13 18 22 24 24 24 25 22 19 20 22 22 22 22 23 25 25 20 14 18 26 21 10 8 12 16 18 23 20 14 13 12 11 11 15 22 20 17 14 14 14 11 7 14 17 18 19 20
21 21 21 20 20 20 20 20 20 20 20 20 20 19 20 20 21 21 21 22 23 23 23 23 24 23 25 25 15 7 7 8 7 8 10 10 12 8 4 6 10 17 21 23 24 23 25 24 20 21 22 21 22 22 24 25 24 25 20 19 21 20 18 14 12 16 16 22 22 14 14 15 13 11 17 24 20 15 16 17 17 12 9 13 17 19 20 20
22 22 22 21 21 20 20 20 20 20 20 20 19 19 19 19 20 20 21 22 23 23 23 24 25 25 28 21 5 5 13 13 12 17 15 11 13 17 13 5 8 15 19 22 23 21 24 26 25 23 22 20 21 20 21 20 19 18 16 19 21 19 21 18 13 14 17 21 22 15 16 21 16 12 19 25 19 17 20 19 16 13 12 13 15 18 21 20
22 22 22 22 22 21 21 21 20 20 20 19 19 19 19 18 19 20 20 21 23 24 23 25 25 27 28 14 4 9 15 16 18 20 19 16 15 16 18 12 8 14 18 20 20 17 17 20 24 24 24 24 22 20 21 20 20 18 16 21 23 19 16 19 16 10 15 23 22 14 16 24 18 12 21 23 18 21 23 20 18 15 14 16 15 16 21 19
24 24 23 23 22 22 22 21 21 21 20 19 19 20 19 19 19 19 20 21 22 23 23 25 26 28 29 14 7 13 17 19 19 16 17 20 17 15 18 19 12 13 19 22 22 20 17 17 21 24 25 26 23 22 24 23 24 24 22 20 20 19 14 17 20 13 13 21 21 15 16 24 18 13 22 22 18 24 24 21 19 17 17 18 16 16 20 19
25 25 25 24 23 23 22 22 21 21 21 20 20 19 19 19 19 19 21 21 21 22 23 26 26 28 27 15 9 14 16 17 13 11 15 18 18 16 17 21 18 13 18 24 25 24 24 21 20 23 24 25 26 26 23 23 24 23 21 17 17 20 19 16 18 18 15 17 18 15 17 22 18 16 23 22 20 25 25 22 20 18 19 19 18 16 19 21
24 25 25 25 25 24 24 23 22 22 20 21 20 18 19 20 20 20 21 21 21 21 23 26 27 28 23 13 12 11 11 15 13 13 16 15 15 15 18 21 21 16 14 20 26 25 24 23 21 22 24 26 27 27 24 23 25 21 18 19 20 22 22 18 17 19 18 19 18 17 18 18 18 19 23 21 21 25 25 23 21 20 20 20 19 17 18 21
25 25 25 26 25 24 25 24 23 23 21 21 21 19 18 21 22 22 21 22 22 22 23 25 27 27 19 11 13 9 5 11 14 13 14 14 12 12 16 19 19 16 13 16 23 25 23 22 22 21 24 27 29 30 29 25 24 22 19 21 24 25 24 21 20 17 20 24 20 20 19 16 18 21 23 21 21 24 25 24 22 21 21 20 20 18 17 19
27 25 25 26 26 25 25 25 24 24 22 21 22 21 19 22 23 23 23 23 23 22 21 23 26 26 17 9 8 4 2 5 10 11 12 12 11 12 12 12 13 15 16 18 21 24 24 23 24 26 28 31 32 33 32 28 23 22 23 24 25 26 24 21 19 18 20 24 22 21 19 17 18 19 22 25 24 23 25 26 24 21 22 21 21 19 17 18
30 28 26 25 26 25 25 25 24 24 23 22 22 22 22 23 23 24 26 25 23 23 22 24 27 26 20 15 10 7 5 4 10 9 11 13 12 14 14 13 14 17 20 21 21 23 24 27 30 33 33 30 31 34 33 29 26 26 27 27 26 24 24 22 21 22 21 22 24 21 18 21 20 17 19 27 27 23 24 28 26 24 23 24 24 21 19 18
32 31 28 26 25 26 26 25 25 24 24 22 22 22 24 26 25 26 28 27 24 24 24 24 26 28 21 17 18 12 12 9 13 12 13 16 14 14 18 20 21 23 23 22 21 20 24 32 35 34 32 28 27 30 32 29 27 30 31 30 30 28 25 22 20 26 25 20 25 25 21 24 24 20 21 26 28 23 24 29 28 26 25 25 26 24 20 18
33 32 31 28 26 25 26 26 25 25 24 23 23 23 24 26 26 27 30 30 24 23 25 22 24 29 22 15 21 20 16 17 16 17 17 18 18 17 19 22 24 25 23 22 23 24 29 35 35 30 28 28 26 26 31 33 30 30 32 32 32 31 27 23 18 24 26 21 25 29 25 25 25 24 24 26 27 23 24 27 28 27 27 27 28 27 23 19
34 33 32 31 28 26 26 26 24 24 24 24 24 23 24 25 26 27 31 34 28 22 24 24 23 26 24 19 18 25 27 23 22 22 22 20 21 20 19 20 22 24 24 25 28 30 32 32 30 28 26 26 28 27 29 33 34 33 33 32 34 32 27 25 21 19 26 26 25 29 28 27 27 26 25 25 25 24 24 26 27 28 29 28 28 28 26 22
33 33 32 32 30 27 27 27 25 24 24 24 24 24 26 25 25 27 28 35 35 24 20 22 24 26 24 19 16 25 32 29 25 25 25 24 24 24 22 20 20 24 26 27 29 32 32 26 21 24 27 27 29 30 30 33 36 37 36 34 33 31 28 27 25 21 25 29 24 26 27 27 30 26 23 25 25 25 25 26 28 29 30 29 28 28 27 25
32 32 32 32 31 29 28 27 25 25 25 25 26 25 25 23 22 26 27 31 37 29 22 22 24 25 20 18 21 25 29 33 31 27 27 28 27 26 25 23 23 26 27 27 28 31 33 26 20 21 26 30 30 32 34 35 35 36 37 37 34 31 29 28 28 22 17 26 23 21 18 19 30 30 25 26 26 26 27 28 29 29 30 30 29 30 28 27
30 31 31 31 31 29 27 27 24 24 25 24 24 21 20 19 17 22 23 24 33 32 25 23 21 20 18 23 25 24 25 29 31 29 29 28 29 27 25 24 27 27 26 25 26 30 32 28 26 26 26 29 33 35 36 36 36 35 35 36 34 33 32 32 33 26 13 24 23 22 16 13 26 32 27 26 27 29 30 29 31 30 31 32 30 30 29 28
30 30 30 29 31 29 26 26 25 24 24 24 22 18 17 16 14 18 17 15 20 20 16 15 14 16 17 17 22 26 19 14 22 33 34 31 30 28 26 25 27 28 25 22 26 31 30 27 30 31 29 31 35 37 36 36 38 38 33 30 29 33 34 34 35 31 20 21 23 28 28 18 23 30 27 26 29 30 31 31 32 31 31 31 31 31 32 30
29 30 30 27 30 31 26 25 26 25 26 25 22 19 18 16 15 14 8 4 5 4 6 9 9 14 15 14 21 28 17 6 14 25 30 35 33 30 31 30 27 27 24 24 30 31 27 27 30 31 33 34 35 36 34 34 38 39 33 27 27 30 32 33 33 33 28 22 21 30 36 20 16 27 27 26 32 32 32 33 33 34 33 31 31 32 32 31
29 29 29 26 27 30 27 25 26 25 26 24 21 20 18 15 14 9 2 4 8 6 8 9 9 12 16 18 21 25 21 13 9 10 17 31 37 33 33 32 28 26 24 26 32 29 24 26 27 29 34 36 33 31 33 35 37 37 33 30 29 28 30 31 31 34 31 22 19 28 36 20 11 26 29 25 31 32 33 36 37 38 34 31 33 33 32 31
28 28 29 27 25 26 26 26 27 25 24 22 18 16 16 15 13 8 5 8 9 6 8 11 11 11 15 21 22 23 25 20 12 9 13 23 34 37 32 28 27 27 27 27 30 30 27 25 25 28 32 34 32 28 30 35 35 33 31 32 31 30 33 32 30 35 26 14 18 24 32 27 13 24 35 32 33 33 33 36 39 39 34 30 32 35 35 34
28 27 27 27 25 23 21 24 27 24 21 20 17 14 15 17 15 8 6 14 14 10 10 12 12 15 18 23 25 26 26 24 20 17 19 23 32 38 34 28 28 29 30 32 32 32 30 28 28 30 29 29 31 30 29 30 33 35 32 31 31 29 31 30 29 30 16 8 22 26 25 26 16 21 37 38 35 33 32 36 37 36 34 31 33 35 37 36
29 27 25 26 26 22 19 22 25 22 20 19 17 18 18 16 18 20 14 10 11 11 14 14 14 19 22 24 28 29 28 29 26 24 27 31 36 42 41 36 34 31 31 35 35 32 32 34 32 29 28 28 30 31 30 29 32 37 37 33 26 18 17 17 15 14 9 12 28 31 26 25 20 21 31 35 34 32 31 33 35 35 34 34 36 36 37 37
30 29 25 24 25 22 19 21 22 20 19 17 16 20 21 12 15 31 30 17 8 4 7 12 15 19 22 26 29 28 29 32 29 27 30 32 35 42 44 40 38 33 29 32 33 29 27 31 34 32 30 29 32 35 32 32 35 37 40 39 26 10 6 8 7 6 8 14 26 33 28 23 25 26 25 27 29 29 29 29 30 32 31 34 38 37 37 38
32 30 26 23 24 22 19 20 21 19 18 17 19 21 24 18 15 21 28 27 21 12 7 8 12 15 21 28 30 29 30 32 30 29 31 32 35 39 43 43 39 34 30 27 29 29 23 22 31 36 34 30 32 36 33 29 35 39 40 38 32 24 14 8 6 4 5 10 19 26 21 16 22 27 27 31 32 30 30 28 28 28 25 28 34 36 37 39
33 31 28 24 21 21 19 19 20 19 18 19 23 26 31 30 21 14 14 18 20 20 18 18 21 23 23 27 30 30 31 29 29 31 33 36 38 39 42 45 43 38 33 28 27 29 27 25 27 30 34 33 29 33 33 29 30 36 39 38 40 42 31 14 8 12 12 9 13 20 18 17 22 22 22 26 29 31 30 28 30 30 26 27 33 37 38 38
35 32 28 23 20 20 19 18 19 20 20 21 26 35 41 37 25 16 12 11 12 16 22 26 28 24 24 25 28 31 32 29 27 31 35 38 40 40 40 42 44 42 39 34 28 26 25 26 27 26 29 33 31 30 35 35 29 28 38 46 44 40 34 21 13 18 18 9 12 22 23 22 24 21 20 21 23 30 32 28 29 31 28 30 34 37 36 35
35 31 24 19 17 18 18 17 19 21 21 24 32 40 43 38 30 23 17 16 17 16 19 21 21 18 19 22 25 28 31 31 29 33 36 36 38 41 40 38 40 42 42 38 31 28 24 21 25 28 29 31 32 31 34 39 35 27 32 41 38 31 31 28 16 12 11 6 10 22 24 22 20 18 23 26 25 29 35 31 29 32 32 33 34 34 33 32
35 30 21 13 10 14 15 13 16 21 20 24 36 41 38 35 33 29 25 25 25 22 22 23 21 20 18 19 22 25 29 33 33 34 35 36 37 39 42 40 37 40 41 38 34 30 26 22 23 28 31 30 30 32 33 36 39 35 28 29 31 28 28 29 18 9 9 5 5 15 22 24 25 22 24 29 28 28 32 32 30 32 34 36 36 35 35 35
34 29 18 9 5 2 7 9 11 17 19 25 34 35 33 33 30 27 27 31 32 29 29 26 22 23 25 24 23 22 25 32 35 35 33 34 36 37 40 41 38 37 38 39 38 34 28 24 22 25 30 30 33 38 38 35 37 38 33 30 34 32 29 31 26 17 11 5 5 11 14 18 27 30 24 24 28 30 29 30 31 30 32 36 37 37 36 36
32 27 15 12 13 10 12 11 13 18 21 26 30 27 27 26 23 22 21 25 31 31 30 28 24 27 34 33 30 28 27 26 30 36 37 34 34 35 38 40 39 36 36 39 41 39 34 28 23 22 27 31 38 43 42 37 36 40 41 41 38 34 30 29 31 33 24 8 3 6 8 16 28 31 26 22 24 29 30 32 34 33 32 34 37 39 38 35
29 26 15 13 15 14 17 19 20 21 22 26 27 26 26 24 22 23 20 20 27 31 30 30 29 30 34 35 35 33 31 28 26 29 37 38 35 33 34 38 41 36 35 40 44 43 40 35 28 25 28 32 38 41 42 41 40 41 45 48 44 35 28 19 19 34 37 21 11 6 4 16 26 26 28 29 25 26 29 31 36 35 31 32 36 39 39 36
28 26 16 13 15 16 21 25 22 20 23 26 25 23 23 23 23 22 20 19 24 29 32 33 32 32 32 33 35 35 34 33 32 30 31 37 37 34 30 31 37 38 37 41 45 45 42 36 32 32 33 32 29 32 38 41 41 41 42 48 48 40 33 22 10 17 30 28 25 18 10 19 30 27 26 29 27 28 28 27 32 34 30 32 36 37 38 38
28 28 19 13 17 18 21 26 24 21 23 25 24 24 24 24 24 23 21 21 22 24 26 29 30 29 31 32 33 35 35 35 38 37 30 28 32 35 32 29 32 36 39 40 42 44 42 37 33 32 34 36 31 29 35 40 41 42 43 44 46 45 42 33 21 16 21 24 24 17 11 22 34 33 29 27 24 25 27 25 28 31 29 30 32 33 35 38
26 27 20 12 19 23 23 26 25 21 22 23 24 26 25 24 24 22 22 23 24 21 20 23 22 21 26 30 31 34 32 31 39 40 33 32 27 26 30 34 36 37 39 40 39 40 43 40 35 24 18 24 29 25 28 42 46 42 42 41 42 45 43 37 34 27 22 27 28 14 9 21 28 30 35 33 26 22 21 21 25 29 29 27 30 33 34 35
24 24 19 9 16 24 22 21 22 22 23 24 25 26 25 25 23 20 19 21 20 17 17 21 21 18 22 27 30 34 30 22 29 35 35 36 31 24 25 28 33 39 40 39 37 38 42 44 41 29 13 11 18 19 21 38 47 42 39 38 39 40 39 37 37 30 22 30 36 25 19 25 28 31 38 37 31 24 18 16 23 27 28 26 26 32 37 37
21 20 17 8 13 20 18 15 17 20 22 23 25 27 29 31 30 28 26 23 21 20 20 24 25 22 25 28 28 31 30 20 19 25 27 29 32 33 30 22 20 26 32 38 39 36 40 46 47 44 36 27 27 30 26 28 39 43 41 38 37 36 38 39 37 34 29 25 30 36 36 31 28 32 37 36 34 31 22 18 22 24 26 26 24 28 35 38
17 17 15 12 10 15 17 17 15 14 15 17 21 24 28 33 36 37 37 33 30 31 30 29 27 25 26 28 27 27 29 23 21 23 23 25 35 40 40 33 21 16 19 31 41 40 36 40 46 50 50 43 36 35 32 27 30 37 41 41 39 36 36 40 41 43 39 23 20 33 38 32 31 32 32 30 29 32 29 25 23 20 19 24 23 24 31 38
16 17 14 12 15 16 16 18 19 18 16 15 18 20 22 26 30 31 36 37 36 36 36 36 34 29 25 25 25 25 27 26 25 26 24 24 34 40 43 43 32 21 14 16 33 47 43 37 41 46 48 46 42 35 33 35 33 32 36 39 40 39 38 39 41 44 42 32 31 36 32 28 29 29 30 29 25 26 31 32 30 22 14 13 15 17 26 35
16 18 15 13 17 21 20 20 21 21 21 18 18 19 20 22 24 25 28 32 36 36 33 33 38 36 34 33 31 29 25 23 24 26 24 23 24 28 36 39 31 24 17 11 15 32 41 38 37 40 43 44 45 41 35 36 37 34 34 37 37 39 42 42 40 39 38 38 42 43 38 35 31 26 28 32 29 25 24 27 33 31 21 13 11 12 16 23
15 16 17 16 18 20 22 23 23 23 21 19 18 18 19 22 24 25 24 24 27 31 26 26 32 36 38 41 40 37 29 21 22 23 24 26 23 19 25 29 24 18 16 13 8 9 21 33 35 34 36 38 42 46 41 38 38 34 31 34 39 39 40 42 40 36 34 35 37 38 39 42 40 31 27 31 32 27 20 19 24 29 30 24 16 12 13 15
16 16 17 19 21 21 21 22 22 22 22 20 17 16 17 19 19 21 23 21 22 26 24 23 26 30 36 39 40 43 41 32 28 27 25 27 27 22 24 27 24 18 14 15 12 8 13 23 33 32 24 26 35 40 43 44 41 38 36 35 38 39 37 38 39 38 36 34 33 34 36 39 40 35 29 28 30 28 24 22 20 22 30 29 20 15 15 16
17 17 17 20 23 22 20 20 20 21 22 21 17 15 17 19 18 18 22 22 20 20 21 20 22 27 33 38 40 43 45 43 39 35 30 29 29 27 29 27 23 22 21 21 22 16 19 23 29 35 21 20 27 32 43 45 33 35 46 40 31 31 33 33 35 37 38 37 35 34 34 33 33 33 32 30 29 30 31 29 23 21 26 30 27 24 21 18
Wind_Direction
276 276 276 276 276 276 277 278 280 281 282 285 287 289 291 294 297 298 298 294 290 285 283 281 282 284 284 285 284 285 283 277 269 262 269 245 226 226 224 223 221 225 230 233 239 243 249 253 259 265 272 285 296 267 258 298 296 300 299 253 250 260 329 340 351 29 109 148 151 155 150 148 146 155 192 192 209 197 160 167 168 165 179 179 179 173 168 162
276 276 276 276 276 276 276 276 277 278 279 281 282 285 287 289 292 294 296 296 293 289 286 284 283 284 284 285 285 286 287 284 273 263 262 237 230 227 222 223 221 222 225 228 235 241 247 251 253 257 262 266 276 258 258 269 277 297 292 257 287 306 319 303 242 91 155 186 136 158 151 154 162 166 200 176 178 170 154 158 156 171 175 170 178 174 170 167
276 276 275 275 276 276 276 276 276 276 277 277 279 282 284 286 288 290 292 294 294 293 290 288 286 286 284 284 285 287 290 291 280 267 260 252 241 230 220 220 219 220 221 222 226 233 238 240 241 244 249 246 235 237 248 254 263 284 274 243 358 3 334 265 200 104 204 255 173 172 165 172 181 194 188 168 169 164 155 163 172 190 176 167 181 177 170 170
278 276 276 275 275 275 275 275 274 274 274 275 276 278 280 283 285 287 288 289 291 291 292 291 289 288 287 286 285 286 294 298 282 265 263 259 232 222 219 217 216 216 215 213 216 222 224 221 228 237 230 221 213 226 241 246 254 262 249 224 48 10 337 220 163 116 159 204 181 183 173 176 183 186 187 176 173 169 173 190 204 213 187 175 180 178 175 172
281 279 278 276 275 275 274 274 273 273 273 272 273 274 275 278 281 283 284 286 286 287 288 290 290 289 288 288 286 285 294 301 288 276 245 216 197 202 209 212 214 211 207 206 208 213 213 199 204 233 226 213 216 219 231 239 250 247 240 252 355 348 303 227 170 134 163 192 191 185 176 182 185 184 195 195 202 199 198 209 225 233 199 189 180 177 178 176
287 285 282 279 277 276 274 273 272 271 270 271 271 271 271 273 276 278 281 282 283 284 284 285 286 286 288 287 287 286 286 284 289 299 282 241 210 198 206 208 211 209 203 204 204 208 213 194 186 216 227 223 222 222 229 235 242 244 245 255 251 122 255 241 259 220 185 196 195 190 190 198 192 192 202 215 243 218 204 215 232 239 196 190 183 180 179 178
294 291 288 285 282 279 276 274 272 270 269 269 268 269 270 270 271 273 275 278 280 281 280 282 281 282 284 284 285 282 281 279 277 283 280 275 280 268 245 218 209 207 203 204 203 205 213 202 187 200 217 226 224 224 230 230 236 243 244 248 240 228 243 243 247 222 207 199 189 188 201 208 201 201 204 228 234 193 194 215 232 235 190 187 186 184 180 177
299 296 293 290 287 284 281 278 275 273 270 268 267 267 267 267 269 269 271 272 275 277 278 279 278 278 278 280 282 279 280 285 254 256 270 284 285 274 252 233 215 206 202 203 204 204 208 206 195 191 205 221 224 224 227 227 235 240 238 240 230 226 253 278 230 214 207 192 186 192 203 205 197 200 198 222 207 190 202 220 224 243 202 185 184 183 180 176
305 302 298 295 292 289 286 283 280 277 274 271 268 266 265 265 266 267 268 269 271 272 274 275 275 275 273 274 278 282 286 266 250 256 278 294 297 290 255 232 218 207 201 200 201 199 203 206 200 194 201 215 224 228 230 239 242 235 234 238 230 231 259 283 274 240 201 193 199 202 205 198 194 208 200 194 191 193 217 225 222 252 207 183 182 182 180 178
306 305 302 299 296 293 291 288 285 283 279 276 273 270 267 264 263 263 265 267 268 269 270 272 272 272 271 270 272 281 291 258 278 331 323 308 306 303 269 235 212 205 200 197 198 196 200 204 197 197 204 213 226 233 234 240 243 238 246 247 233 228 245 261 255 240 211 212 218 192 190 196 197 216 195 185 189 189 205 219 228 258 213 184 183 180 180 181
303 303 302 302 299 297 294 291 289 287 284 281 278 274 271 268 264 262 261 263 265 267 268 268 269 270 269 268 267 274 278 253 280 330 310 302 298 284 247 235 211 202 199 196 196 196 199 195 188 201 212 215 223 235 240 237 239 249 268 256 231 222 230 238 236 240 227 216 210 181 182 194 196 210 191 181 188 198 211 226 239 254 216 185 184 180 181 184
299 299 300 300 299 298 296 294 292 289 287 285 282 279 275 272 268 265 262 262 263 263 266 266 267 268 267 267 266 264 260 240 214 228 256 283 289 286 264 236 212 200 197 196 193 194 199 187 180 201 212 220 224 232 240 238 246 257 258 255 241 226 227 236 242 243 232 206 190 167 172 190 202 205 189 182 186 210 224 231 241 241 211 189 185 180 180 185
298 297 297 298 298 297 296 295 293 290 289 286 285 283 279 276 272 269 265 262 262 262 263 264 265 266 266 268 254 212 245 246 221 214 223 235 259 276 286 278 215 198 190 194 190 191 201 190 182 195 203 216 226 231 238 242 257 257 257 269 261 240 228 228 236 234 229 211 189 175 175 186 206 210 194 192 190 205 213 220 229 227 211 196 189 180 178 188
297 295 295 295 296 296 295 294 293 291 289 288 286 284 282 280 276 273 269 264 262 261 262 263 264 265 265 260 170 219 236 239 233 219 221 226 224 245 269 277 228 200 193 192 183 183 205 202 193 196 201 209 216 230 240 249 257 252 262 269 257 256 245 223 225 229 226 215 200 199 188 185 202 209 198 198 196 204 210 211 215 218 212 201 197 184 179 193
296 294 293 293 293 293 292 292 292 291 290 290 287 285 284 282 279 277 272 267 264 262 261 262 262 263 266 262 221 236 237 238 244 235 232 236 222 215 245 264 255 211 203 195 180 177 193 209 214 209 205 207 211 227 240 248 250 252 265 256 238 250 255 232 226 220 212 203 199 207 192 189 202 203 201 203 198 204 209 209 212 217 212 205 204 192 183 194
295 293 291 290 290 290 289 289 289 289 291 290 287 286 285 281 280 277 273 271 267 263 262 261 261 262 268 273 249 237 238 244 251 242 233 235 232 214 222 247 258 238 211 199 186 179 183 195 218 223 214 210 213 225 240 252 250 255 267 254 238 239 243 247 223 204 204 192 189 201 194 192 200 202 207 205 194 201 210 211 215 220 216 211 208 199 190 194
291 291 290 289 288 288 287 286 285 285 287 289 287 287 287 284 278 274 273 272 269 265 262 260 261 262 266 272 259 244 243 245 240 235 230 231 234 220 213 228 241 243 223 205 194 184 185 191 204 220 222 216 214 219 230 246 248 251 255 243 244 244 240 236 203 191 208 202 190 196 200 200 198 198 205 202 190 199 213 214 213 221 221 218 215 207 199 198
290 288 288 288 287 287 286 285 285 284 284 286 286 286 286 283 279 276 273 270 268 265 261 261 261 262 266 266 257 257 276 252 239 240 238 231 228 211 209 217 223 229 225 215 202 193 195 199 201 210 219 218 212 213 221 228 235 241 240 231 235 246 251 235 203 191 201 202 197 195 203 212 202 194 200 205 196 197 211 216 213 220 225 227 226 217 208 205
292 289 286 286 286 286 285 284 284 283 283 284 285 286 284 278 279 279 275 269 266 265 263 262 259 257 254 242 228 206 19 292 244 239 240 229 219 200 194 204 212 217 218 219 210 201 203 206 208 212 214 215 211 210 216 219 224 232 236 234 229 235 249 244 216 196 191 193 193 196 206 210 202 198 201 207 201 194 207 216 215 218 224 229 234 230 218 211
293 291 288 286 286 286 285 284 284 283 282 282 282 285 283 279 278 276 273 270 268 266 260 258 262 261 250 233 219 173 126 289 262 236 219 211 206 198 192 197 211 218 216 217 215 207 207 211 213 214 212 212 213 212 212 216 224 230 238 246 241 236 239 240 223 202 195 195 194 199 210 206 202 199 198 204 204 197 202 212 216 216 221 226 234 240 229 215
291 291 290 287 286 286 285 285 285 284 283 282 281 282 282 282 281 278 276 272 267 265 259 255 261 265 258 231 222 202 156 190 245 239 214 206 200 197 198 196 202 215 218 212 215 217 214 217 217 216 215 213 216 218 214 214 224 232 242 251 257 258 251 246 229 203 199 204 201 202 207 206 205 199 192 198 204 203 201 208 215 216 220 225 232 242 239 224
288 288 288 288 287 285 285 285 285 285 285 283 281 281 282 283 284 286 285 277 263 261 264 255 251 260 268 243 216 212 194 182 202 224 223 211 205 203 202 201 199 208 218 211 209 218 220 221 220 218 220 216 215 220 218 217 222 231 241 249 257 265 264 263 247 205 200 211 205 199 201 206 209 205 197 196 202 209 206 208 216 217 219 224 229 239 244 236
287 285 285 285 286 285 285 285 284 285 283 280 279 279 278 279 283 286 287 283 271 260 262 259 254 256 260 255 216 207 217 201 185 206 221 215 208 207 206 209 207 204 212 214 209 214 221 225 222 217 220 220 215 217 219 219 222 228 237 244 251 257 262 267 265 227 210 212 203 196 200 205 205 205 202 198 200 207 210 212 218 221 222 227 233 239 244 244
288 286 284 283 283 284 284 284 285 283 279 277 275 273 275 276 281 283 283 285 279 265 261 263 260 253 248 252 226 210 222 219 200 200 212 215 207 206 210 208 210 211 211 215 216 218 222 227 229 222 218 219 219 217 217 219 221 226 232 238 245 250 257 261 269 262 221 203 194 193 196 195 194 199 199 199 202 208 213 214 215 221 225 229 235 239 244 250
289 287 285 282 280 280 281 282 283 280 276 275 275 277 283 284 285 285 287 291 285 273 270 265 255 254 246 232 225 219 221 224 218 204 204 218 214 208 213 209 209 218 217 215 220 226 227 224 228 232 221 216 219 220 217 217 221 225 229 234 239 244 252 253 262 271 214 182 184 195 195 186 193 202 203 205 210 209 212 214 213 219 225 227 231 234 240 248
291 288 286 283 279 275 277 279 279 278 277 275 279 284 289 290 287 286 294 300 293 285 282 270 252 250 240 225 222 213 217 231 231 211 198 213 225 217 214 215 215 219 220 219 221 230 233 225 221 229 226 216 218 222 219 216 222 227 228 232 238 241 249 252 258 270 222 179 194 216 227 202 192 201 208 212 212 206 208 215 214 215 222 227 229 231 237 244
295 291 288 285 282 275 271 274 274 273 274 273 277 278 277 281 279 287 301 307 303 300 284 260 240 236 234 228 219 201 204 236 226 214 204 202 217 222 215 215 219 218 215 217 225 229 230 226 223 225 227 221 217 221 220 216 221 227 227 229 235 240 247 253 258 270 255 208 207 218 223 215 193 200 212 213 211 210 210 213 214 213 217 224 230 234 236 242
298 295 290 288 286 280 272 270 270 269 271 271 271 271 268 269 269 278 300 299 294 314 263 243 218 225 224 214 216 210 211 233 215 217 210 198 203 217 220 215 216 222 214 211 225 230 224 224 224 223 226 226 221 221 220 218 221 225 226 227 233 237 244 251 254 263 263 238 218 208 206 210 206 204 211 211 212 216 212 209 212 212 212 218 227 234 234 237
299 296 293 290 285 284 280 271 268 266 268 270 270 269 265 262 260 254 233 251 252 243 248 236 205 220 219 207 216 220 217 220 226 231 211 202 201 209 222 221 212 220 222 218 228 233 227 226 226 223 226 228 226 224 221 220 222 224 225 228 234 238 241 246 248 254 261 252 235 214 201 203 217 205 205 208 212 216 213 211 211 213 217 220 220 227 231 232
300 298 295 292 284 283 283 276 271 265 264 267 264 262 258 249 238 218 206 237 250 265 253 230 216 214 207 204 212 220 217 206 202 223 219 211 207 207 219 228 219 218 225 227 232 235 231 230 228 226 228 227 227 227 223 222 222 223 225 227 233 242 244 246 246 246 254 252 246 237 212 207 215 205 205 209 215 219 215 211 212 217 226 225 217 219 226 229
300 297 295 294 287 283 281 276 272 266 263 261 251 241 237 232 221 203 229 240 245 262 245 232 231 217 205 205 210 217 218 206 194 204 212 205 206 207 210 220 222 220 225 230 234 236 234 232 230 228 228 227 228 229 226 222 221 221 222 224 230 241 247 251 247 237 238 245 246 252 235 223 221 209 210 213 218 222 219 217 218 220 225 224 218 217 221 227
300 297 295 293 289 285 278 274 271 267 262 253 242 232 220 220 222 216 220 239 252 254 239 239 237 220 216 214 212 213 215 211 203 203 209 201 199 206 206 207 210 211 218 226 228 232 234 234 232 229 227 224 224 229 226 217 216 218 219 219 223 232 239 248 249 230 224 238 241 248 251 243 243 235 220 213 215 221 224 227 227 226 228 225 220 219 221 225
299 296 296 292 289 287 276 270 269 262 256 245 234 226 211 208 235 228 223 218 202 186 207 231 233 219 216 214 212 213 215 218 213 204 209 206 200 207 209 207 208 209 214 218 222 229 234 234 233 231 230 225 220 222 222 212 209 213 216 214 213 214 214 224 238 235 232 234 236 241 243 243 249 251 237 225 229 235 236 235 231 230 231 227 223 223 222 222
301 299 298 294 290 287 273 265 264 257 250 236 222 213 206 215 237 234 234 230 226 226 200 212 246 246 231 218 214 214 213 221 220 205 205 207 204 207 209 210 211 213 217 219 219 223 227 228 226 226 226 224 220 219 219 213 209 212 214 215 217 219 217 215 212 218 250 246 236 233 233 235 240 243 244 246 248 247 240 232 228 228 228 229 231 228 222 220
302 301 302 301 292 284 272 260 258 252 243 231 217 207 210 222 226 222 239 239 238 251 253 253 268 273 256 230 219 217 215 220 221 211 210 210 207 207 207 210 212 210 213 219 217 218 224 229 227 225 221 219 221 220 217 215 216 214 212 216 222 222 222 228 227 232 248 257 244 236 237 240 236 235 246 253 246 234 226 219 221 225 225 228 231 227 221 220
300 302 307 306 292 283 276 263 255 246 234 225 217 214 218 224 223 217 227 227 236 269 278 268 263 269 268 244 222 217 218 220 219 215 216 215 212 212 210 212 215 210 208 212 213 211 219 229 229 226 223 218 217 219 215 213 218 214 208 215 222 221 224 233 241 245 246 244 240 241 243 243 240 240 246 254 247 226 214 212 219 224 225 225 225 223 221 223
299 301 308 305 296 297 289 267 250 239 228 221 221 224 227 229 228 226 222 219 233 268 292 282 265 263 273 257 234 220 216 219 219 215 216 216 216 216 214 215 219 215 209 210 213 215 219 230 227 221 224 221 214 217 219 216 217 215 208 215 221 223 227 228 229 242 242 240 235 235 241 238 234 240 238 242 248 230 217 217 218 220 223 223 221 222 225 230
299 300 306 302 315 328 306 273 239 228 224 225 230 233 235 235 233 232 231 231 239 260 281 286 275 263 270 273 257 235 216 213 217 216 215 216 219 220 216 215 219 220 215 211 215 220 225 238 235 220 221 223 214 215 218 216 218 221 218 217 217 217 217 213 211 218 221 238 244 235 243 237 227 232 234 235 237 226 217 214 210 213 220 219 218 222 227 233
302 302 304 272 240 293 275 267 248 234 231 237 240 242 243 244 243 241 241 241 245 260 275 282 277 264 267 278 281 267 238 218 214 217 218 218 222 225 221 216 217 221 219 214 216 218 219 232 240 226 220 218 212 213 214 210 212 219 225 226 221 218 213 207 208 217 218 226 230 232 247 239 227 228 233 235 226 217 216 214 208 212 219 219 221 224 228 231
302 302 296 249 225 199 197 223 249 247 241 243 247 251 253 257 260 257 255 249 248 259 273 280 279 272 273 276 277 276 268 247 227 220 220 222 224 224 224 220 216 217 219 217 218 219 220 227 240 236 224 214 207 208 210 207 205 209 217 226 227 223 218 212 215 219 221 222 193 205 237 239 232 229 233 241 232 225 229 225 217 215 217 220 223 227 231 231
300 298 284 242 233 215 202 212 229 240 244 247 253 258 260 265 269 263 260 255 251 254 263 272 276 274 279 280 273 272 278 275 261 237 223 222 225 223 221 220 218 216 215 215 216 218 220 226 235 238 232 223 214 212 211 208 207 207 211 219 225 223 214 208 213 216 219 225 225 218 251 243 238 234 232 239 244 243 240 231 224 221 218 220 223 226 231 230
295 292 279 245 238 229 219 217 220 234 246 252 257 263 267 271 274 271 266 263 260 256 257 264 270 272 278 282 277 278 283 277 275 270 243 225 224 227 225 220 218 215 212 214 215 215 218 224 230 235 237 234 224 217 215 210 208 212 214 216 221 225 222 220 223 211 213 224 230 231 253 250 243 239 230 229 236 244 246 238 232 228 221 218 219 224 229 228
290 288 283 249 230 227 230 230 227 231 242 253 259 262 266 266 267 270 267 268 273 270 266 268 272 275 277 281 279 278 281 277 272 275 271 252 234 228 229 228 220 215 212 215 217 212 212 220 225 228 236 238 235 230 221 210 206 210 216 217 219 225 228 229 238 233 220 222 220 217 235 241 239 237 234 234 237 242 248 244 233 227 220 214 217 225 227 225
291 290 289 260 226 224 232 239 241 242 249 260 265 265 267 263 260 264 265 266 267 266 268 266 268 277 274 270 269 264 268 278 273 268 273 278 260 228 227 231 224 219 214 213 216 211 206 212 217 217 229 237 239 242 221 203 200 205 212 216 218 224 228 230 236 240 233 226 220 212 229 231 229 230 231 237 244 247 250 241 225 221 220 221 226 228 227 226
296 294 291 266 215 220 234 246 252 257 262 268 268 266 267 261 252 250 260 269 264 266 281 266 257 284 287 270 261 253 252 272 283 276 272 276 271 248 238 232 221 224 226 218 215 215 210 209 211 210 207 212 222 232 212 194 196 202 209 214 216 219 222 225 232 235 230 227 224 222 234 235 233 234 233 235 239 243 249 234 220 223 225 228 231 227 225 227
298 295 292 271 201 208 227 243 254 263 268 271 269 263 262 260 255 246 250 267 268 265 277 268 262 287 295 281 271 261 259 266 273 276 275 271 267 255 243 232 216 220 230 226 219 218 214 210 211 213 217 218 216 223 222 198 194 200 206 212 214 215 217 220 226 233 231 228 225 225 230 234 234 231 227 228 235 240 244 235 231 237 230 223 228 231 227 225
289 284 289 291 249 220 218 220 230 254 271 281 280 272 266 265 265 254 249 261 270 266 265 263 270 290 291 284 283 273 275 278 259 266 284 269 256 249 235 233 239 228 230 233 225 222 218 212 212 215 218 222 223 224 228 220 206 203 204 208 212 214 216 217 221 230 234 233 234 232 230 230 233 229 220 217 225 231 233 233 240 247 230 219 231 239 227 220
281 277 282 290 281 266 249 234 232 241 257 277 288 285 277 273 274 267 258 259 266 271 273 265 265 281 285 284 294 290 288 293 273 270 289 272 256 255 242 236 243 243 247 249 229 227 229 220 213 215 217 222 225 224 226 229 228 219 209 207 211 213 217 221 223 228 231 235 242 243 240 235 240 242 234 227 228 232 231 230 234 243 240 226 237 241 222 214
282 282 280 277 272 270 269 265 260 260 264 276 288 287 283 280 281 280 274 270 267 270 280 277 269 276 280 274 283 291 294 308 297 277 283 284 275 275 263 248 241 235 241 265 240 230 233 225 213 213 214 218 224 226 224 228 234 234 220 210 211 214 216 222 228 229 230 233 240 246 250 249 248 247 238 234 241 247 240 229 227 231 239 246 246 238 224 214
285 283 280 278 271 268 273 275 276 279 276 276 284 287 286 286 286 284 282 280 278 275 285 292 281 281 282 274 275 280 277 293 304 285 285 295 290 288 285 272 260 241 226 239 260 255 244 231 213 209 214 214 218 224 227 230 235 239 231 215 212 218 220 221 226 230 233 236 237 240 246 249 249 246 238 238 246 250 241 227 223 222 229 245 250 229 220 216
284 281 280 283 277 273 279 279 275 279 278 274 280 285 286 286 286 289 284 273 271 277 286 297 291 286 285 279 277 277 270 271 281 277 278 290 286 282 288 290 292 288 266 263 281 323 308 258 216 204 219 218 211 216 224 229 235 242 242 228 215 216 221 222 222 225 230 237 238 237 239 242 245 245 238 236 243 248 245 239 234 224 227 239 245 231 230 233
281 279 278 283 280 275 282 286 279 275 273 272 279 285 287 288 285 291 295 283 273 273 275 282 292 292 289 284 280 276 270 268 272 273 269 273 278 277 275 284 304 302 287 297 302 300 320 299 231 205 215 228 216 216 217 218 229 240 238 236 227 219 220 225 225 222 222 229 236 240 241 241 244 243 239 237 239 246 251 246 238 230 228 232 237 243 247 240